This is the latest recevied weather packets stored in our database for station/object YB2VNE-13. If no packets are shown the sender has not sent any weather packets the latest 10 day(s).
| Time | Temp. | Humidity | Pressure | Rain* | Wind** | Luminosity | Snow |
|---|---|---|---|---|---|---|---|
| 1777957093 | 28.89° C | 82% | 994 hPa | - | - | 0 W/m² | - |
| 1777956784 | 29.44° C | 80% | 994 hPa | - | - | 0 W/m² | - |
| 1777956474 | 29.44° C | 78% | 994 hPa | - | - | 0 W/m² | - |
| 1777956163 | 30° C | 76% | 995 hPa | - | - | 0 W/m² | - |
| 1777955854 | 29.44° C | 77% | 995 hPa | - | - | 0 W/m² | - |
| 1777955544 | 29.44° C | 74% | 995 hPa | - | - | 0 W/m² | - |
| 1777955234 | 29.44° C | 75% | 995 hPa | - | - | 0 W/m² | - |
| 1777954923 | 29.44° C | 74% | 995 hPa | - | - | 0 W/m² | - |
| 1777954614 | 29.44° C | 73% | 995 hPa | - | - | 0 W/m² | - |
| 1777954303 | 29.44° C | 72% | 995 hPa | - | - | 0 W/m² | - |
| 1777953993 | 28.89° C | 77% | 995 hPa | - | - | 0 W/m² | - |
| 1777953683 | 28.89° C | 79% | 995 hPa | - | - | 0 W/m² | - |
| 1777953374 | 28.89° C | 79% | 995 hPa | - | - | 0 W/m² | - |
| 1777953063 | 29.44° C | 81% | 995 hPa | - | - | 0 W/m² | - |
| 1777952754 | 29.44° C | 80% | 995 hPa | - | - | 0 W/m² | - |
| 1777952443 | 28.89° C | 81% | 996 hPa | - | - | 0 W/m² | - |
| 1777952134 | 28.89° C | 82% | 996 hPa | - | - | 0 W/m² | - |
| 1777951824 | 28.89° C | 86% | 996 hPa | - | - | 0 W/m² | - |
| 1777951513 | 28.89° C | 88% | 996 hPa | - | - | 0 W/m² | - |
| 1777951203 | 28.89° C | 88% | 996 hPa | - | - | 0 W/m² | - |
| 1777950893 | 28.89° C | 86% | 996 hPa | - | - | 0 W/m² | - |
| 1777950583 | 28.33° C | 89% | 996 hPa | - | - | 0 W/m² | - |
| 1777950273 | 28.89° C | 89% | 996 hPa | - | - | 0 W/m² | - |
| 1777949963 | 28.33° C | 90% | 996 hPa | - | - | 0 W/m² | - |
| 1777949653 | 28.33° C | 90% | 996 hPa | - | - | 0 W/m² | - |
* Rain since midnight (hover to see other rain measurements)
** Current wind speed in m/s (hover to see current wind gust speed)